TimeMST,TemperatureF,Dew PointF,Humidity,Sea Level PressureIn,VisibilityMPH,Wind Direction,Wind SpeedMPH,Gust SpeedMPH,PrecipitationIn,Events,Conditions,WindDirDegrees,DateUTC
12:53 AM,30.0,26.1,85,29.84,10.0,Calm,Calm,-,N/A,,Overcast,0,2013-02-20 07:53:00
1:53 AM,30.0,26.1,85,29.86,10.0,ESE,3.5,-,N/A,,Overcast,110,2013-02-20 08:53:00
2:53 AM,30.0,27.0,88,29.86,10.0,Calm,Calm,-,N/A,,Overcast,0,2013-02-20 09:53:00
3:53 AM,30.0,26.1,85,29.87,10.0,Calm,Calm,-,N/A,,Overcast,0,2013-02-20 10:53:00
4:32 AM,30.2,26.6,86,29.81,6.0,Calm,Calm,-,0.00,Snow,Light Snow,0,2013-02-20 11:32:00
4:48 AM,30.2,26.6,86,29.82,3.0,Calm,Calm,-,0.00,Snow,Light Snow,0,2013-02-20 11:48:00
4:53 AM,30.0,27.0,88,29.89,2.5,Calm,Calm,-,0.00,Snow,Light Snow,0,2013-02-20 11:53:00
5:15 AM,28.4,28.4,100,29.82,1.5,Calm,Calm,-,0.01,Snow,Light Snow,0,2013-02-20 12:15:00
5:53 AM,28.9,28.0,96,29.91,4.0,ESE,3.5,-,0.01,Snow,Light Snow,110,2013-02-20 12:53:00
6:29 AM,26.6,26.6,100,29.84,7.0,SE,3.5,-,0.00,,Overcast,140,2013-02-20 13:29:00
6:53 AM,28.0,27.0,96,29.93,5.0,Calm,Calm,-,0.00,,Overcast,0,2013-02-20 13:53:00
7:40 AM,28.4,26.6,93,29.85,2.0,Calm,Calm,-,0.00,Snow,Light Snow,0,2013-02-20 14:40:00
7:53 AM,28.0,27.0,96,29.94,5.0,Calm,Calm,-,0.00,,Mostly Cloudy,0,2013-02-20 14:53:00
8:03 AM,26.6,26.6,100,29.86,4.0,Calm,Calm,-,N/A,,Mostly Cloudy,0,2013-02-20 15:03:00
9:53 AM,30.9,28.9,92,29.96,10.0,South,4.6,-,N/A,,Overcast,180,2013-02-20 16:53:00
10:53 AM,30.9,28.0,89,29.96,10.0,SSE,4.6,-,N/A,,Overcast,160,2013-02-20 17:53:00
11:53 AM,34.0,28.9,82,29.95,10.0,SE,3.5,-,N/A,,Overcast,140,2013-02-20 18:53:00
12:53 PM,37.0,21.0,52,29.93,10.0,NW,6.9,-,N/A,,Overcast,320,2013-02-20 19:53:00
1:53 PM,37.0,19.9,50,29.91,10.0,NNW,13.8,-,N/A,,Overcast,330,2013-02-20 20:53:00
2:53 PM,37.0,21.0,52,29.92,10.0,NNW,13.8,19.6,N/A,,Overcast,330,2013-02-20 21:53:00
3:53 PM,37.0,21.0,52,29.92,10.0,NW,9.2,-,N/A,,Overcast,320,2013-02-20 22:53:00
4:53 PM,36.0,21.0,55,29.93,10.0,NW,10.4,-,N/A,,Overcast,320,2013-02-20 23:53:00
5:53 PM,33.1,21.9,64,29.95,10.0,WNW,8.1,-,N/A,,Scattered Clouds,300,2013-02-21 00:53:00
6:53 PM,33.1,19.9,59,29.96,10.0,NW,5.8,-,N/A,,Overcast,320,2013-02-21 01:53:00
7:53 PM,32.0,21.0,64,29.98,10.0,Calm,Calm,-,N/A,,Overcast,0,2013-02-21 02:53:00
8:53 PM,30.9,21.9,69,29.99,10.0,West,4.6,-,N/A,,Overcast,270,2013-02-21 03:53:00
9:53 PM,32.0,21.0,64,30.00,10.0,WNW,8.1,-,N/A,,Overcast,300,2013-02-21 04:53:00
10:53 PM,30.9,21.9,69,30.01,10.0,North,5.8,-,N/A,,Overcast,350,2013-02-21 05:53:00
11:53 PM,30.0,23.0,75,30.01,10.0,North,4.6,-,N/A,,Overcast,350,2013-02-21 06:53:00